Time,TemperatureF,DewpointF,PressureIn,WindDirection,WindDirectionDegrees,WindSpeedMPH,WindSpeedGustMPH,Humidity,HourlyPrecipIn,Conditions,Clouds,dailyrainin,SolarRadiationWatts/m^2,SoftwareType,DateUTC
2013-10-09 00:12:00,58.1,49.0,30.13,NNE,26,0.0,6.0,71,0.00,,,0.00,0,weatherlink.com 1.10,2013-10-09 04:12:00,
2013-10-09 00:27:00,58.1,49.0,30.13,ENE,74,0.0,4.0,71,0.00,,,0.00,0,weatherlink.com 1.10,2013-10-09 04:27:00,
2013-10-09 00:42:00,58.0,49.0,30.12,ESE,123,0.0,4.0,72,0.00,,,0.00,0,weatherlink.com 1.10,2013-10-09 04:42:00,
2013-10-09 00:57:00,57.9,49.0,30.12,NE,42,0.0,2.0,73,0.00,,,0.00,0,weatherlink.com 1.10,2013-10-09 04:57:00,
2013-10-09 01:12:00,57.9,49.0,30.12,East,87,0.0,2.0,73,0.00,,,0.00,0,weatherlink.com 1.10,2013-10-09 05:12:00,
2013-10-09 01:27:00,58.0,49.0,30.12,WSW,242,0.0,2.0,72,0.00,,,0.00,0,weatherlink.com 1.10,2013-10-09 05:27:00,
2013-10-09 01:42:00,58.2,50.0,30.12,East,79,0.0,4.0,73,0.00,,,0.00,0,weatherlink.com 1.10,2013-10-09 05:42:00,
2013-10-09 01:57:00,58.1,51.0,30.12,East,86,0.0,1.0,76,0.00,,,0.00,0,weatherlink.com 1.10,2013-10-09 05:57:00,
2013-10-09 02:12:00,57.7,49.0,30.12,NE,56,0.0,5.0,74,0.00,,,0.00,0,weatherlink.com 1.10,2013-10-09 06:12:00,
2013-10-09 02:27:00,57.2,49.0,30.12,ENE,59,0.0,3.0,74,0.00,,,0.00,0,weatherlink.com 1.10,2013-10-09 06:27:00,
2013-10-09 02:42:00,56.8,49.0,30.11,WNW,299,0.0,3.0,75,0.00,,,0.00,0,weatherlink.com 1.10,2013-10-09 06:42:00,
2013-10-09 02:57:00,56.3,49.0,30.11,SE,127,0.0,3.0,76,0.00,,,0.00,0,weatherlink.com 1.10,2013-10-09 06:57:00,
2013-10-09 03:12:00,56.0,48.0,30.11,ESE,105,0.0,2.0,75,0.00,,,0.00,0,weatherlink.com 1.10,2013-10-09 07:12:00,
2013-10-09 03:27:00,55.5,48.0,30.10,ESE,107,0.0,3.0,77,0.00,,,0.00,0,weatherlink.com 1.10,2013-10-09 07:27:00,
2013-10-09 03:42:00,55.1,48.0,30.11,NNE,33,0.0,1.0,78,0.00,,,0.00,0,weatherlink.com 1.10,2013-10-09 07:42:00,
2013-10-09 03:57:00,54.5,48.0,30.11,ENE,73,0.0,2.0,79,0.00,,,0.00,0,weatherlink.com 1.10,2013-10-09 07:57:00,
2013-10-09 04:12:00,54.5,48.0,30.11,East,101,0.0,2.0,80,0.00,,,0.00,0,weatherlink.com 1.10,2013-10-09 08:12:00,
2013-10-09 04:27:00,54.8,49.0,30.11,NNE,16,0.0,5.0,81,0.00,,,0.00,0,weatherlink.com 1.10,2013-10-09 08:27:00,
2013-10-09 04:42:00,54.6,49.0,30.11,East,99,0.0,3.0,81,0.00,,,0.00,0,weatherlink.com 1.10,2013-10-09 08:42:00,
2013-10-09 04:57:00,54.4,49.0,30.11,ESE,107,0.0,1.0,81,0.00,,,0.00,0,weatherlink.com 1.10,2013-10-09 08:57:00,
2013-10-09 05:12:00,54.2,49.0,30.11,NNE,14,0.0,3.0,83,0.00,,,0.00,0,weatherlink.com 1.10,2013-10-09 09:12:00,
2013-10-09 05:27:00,54.1,49.0,30.11,ESE,111,0.0,5.0,83,0.00,,,0.00,0,weatherlink.com 1.10,2013-10-09 09:27:00,
2013-10-09 05:42:00,53.9,49.0,30.11,ENE,57,0.0,4.0,82,0.00,,,0.00,0,weatherlink.com 1.10,2013-10-09 09:42:00,
2013-10-09 05:57:00,53.6,48.0,30.11,SSE,167,1.0,3.0,82,0.00,,,0.00,0,weatherlink.com 1.10,2013-10-09 09:57:00,
2013-10-09 06:12:00,53.4,48.0,30.11,NE,36,0.0,7.0,82,0.00,,,0.00,0,weatherlink.com 1.10,2013-10-09 10:12:00,
2013-10-09 06:28:00,53.2,48.0,30.11,NW,305,0.0,5.0,83,0.00,,,0.00,0,weatherlink.com 1.10,2013-10-09 10:28:00,
2013-10-09 06:43:00,53.1,48.0,30.12,WSW,249,0.0,3.0,83,0.00,,,0.00,0,weatherlink.com 1.10,2013-10-09 10:43:00,
2013-10-09 06:58:00,52.8,48.0,30.12,NNW,332,0.0,2.0,84,0.00,,,0.00,0,weatherlink.com 1.10,2013-10-09 10:58:00,
2013-10-09 07:13:00,52.6,48.0,30.12,NE,53,0.0,6.0,84,0.00,,,0.00,0,weatherlink.com 1.10,2013-10-09 11:13:00,
2013-10-09 07:28:00,52.4,48.0,30.12,NNE,15,0.0,3.0,85,0.00,,,0.00,0,weatherlink.com 1.10,2013-10-09 11:28:00,
2013-10-09 07:43:00,52.4,48.0,30.13,East,95,0.0,4.0,86,0.00,,,0.00,5,weatherlink.com 1.10,2013-10-09 11:43:00,
2013-10-09 07:57:00,52.3,48.0,30.14,SE,137,0.0,3.0,86,0.00,,,0.00,9,weatherlink.com 1.10,2013-10-09 11:57:00,
2013-10-09 08:12:00,52.6,49.0,30.14,SE,141,0.0,5.0,87,0.00,,,0.00,11,weatherlink.com 1.10,2013-10-09 12:12:00,
2013-10-09 08:27:00,52.8,49.0,30.14,ENE,57,0.0,7.0,87,0.00,,,0.00,14,weatherlink.com 1.10,2013-10-09 12:27:00,
2013-10-09 08:42:00,53.6,50.0,30.15,WSW,250,0.0,5.0,86,0.00,,,0.00,16,weatherlink.com 1.10,2013-10-09 12:42:00,
2013-10-09 08:58:00,54.3,50.0,30.15,NW,305,0.0,3.0,85,0.00,,,0.00,21,weatherlink.com 1.10,2013-10-09 12:58:00,
2013-10-09 09:13:00,55.1,50.0,30.16,NNW,334,0.0,3.0,84,0.00,,,0.00,19,weatherlink.com 1.10,2013-10-09 13:13:00,
2013-10-09 09:28:00,56.2,50.0,30.16,NNW,333,0.0,6.0,81,0.00,,,0.00,21,weatherlink.com 1.10,2013-10-09 13:28:00,
2013-10-09 09:43:00,57.1,51.0,30.16,NNW,333,0.0,5.0,81,0.00,,,0.00,23,weatherlink.com 1.10,2013-10-09 13:43:00,
2013-10-09 09:58:00,58.3,52.0,30.16,NW,304,0.0,7.0,79,0.00,,,0.00,28,weatherlink.com 1.10,2013-10-09 13:58:00,
2013-10-09 10:13:00,59.6,52.0,30.15,WNW,300,1.0,5.0,77,0.00,,,0.00,39,weatherlink.com 1.10,2013-10-09 14:13:00,
2013-10-09 10:28:00,60.6,53.0,30.16,NW,311,0.0,9.0,75,0.00,,,0.00,37,weatherlink.com 1.10,2013-10-09 14:28:00,
2013-10-09 10:43:00,63.0,53.0,30.15,NNE,27,0.0,6.0,70,0.00,,,0.00,575,weatherlink.com 1.10,2013-10-09 14:43:00,
2013-10-09 10:58:00,64.0,53.0,30.16,SSE,167,0.0,9.0,67,0.00,,,0.00,613,weatherlink.com 1.10,2013-10-09 14:58:00,
2013-10-09 11:13:00,66.3,54.0,30.15,East,89,0.0,5.0,64,0.00,,,0.00,649,weatherlink.com 1.10,2013-10-09 15:13:00,
2013-10-09 11:28:00,68.0,56.0,30.15,ESE,116,0.0,9.0,65,0.00,,,0.00,679,weatherlink.com 1.10,2013-10-09 15:28:00,
2013-10-09 11:43:00,69.2,55.0,30.15,NW,311,0.0,5.0,60,0.00,,,0.00,708,weatherlink.com 1.10,2013-10-09 15:43:00,
2013-10-09 11:58:00,68.7,57.0,30.14,NNE,20,0.0,8.0,66,0.00,,,0.00,733,weatherlink.com 1.10,2013-10-09 15:58:00,
2013-10-09 12:13:00,70.8,57.0,30.14,ENE,59,0.0,3.0,63,0.00,,,0.00,751,weatherlink.com 1.10,2013-10-09 16:13:00,
2013-10-09 12:28:00,72.0,57.0,30.13,NNE,19,0.0,5.0,60,0.00,,,0.00,770,weatherlink.com 1.10,2013-10-09 16:28:00,
2013-10-09 12:43:00,70.3,58.0,30.13,ESE,104,1.0,7.0,66,0.00,,,0.00,779,weatherlink.com 1.10,2013-10-09 16:43:00,
2013-10-09 12:58:00,72.0,56.0,30.12,SW,235,5.0,8.0,58,0.00,,,0.00,788,weatherlink.com 1.10,2013-10-09 16:58:00,
2013-10-09 13:13:00,71.5,58.0,30.12,East,86,2.0,11.0,62,0.00,,,0.00,793,weatherlink.com 1.10,2013-10-09 17:13:00,
2013-10-09 13:28:00,71.1,58.0,30.11,NW,319,3.0,10.0,63,0.00,,,0.00,788,weatherlink.com 1.10,2013-10-09 17:28:00,
2013-10-09 13:43:00,72.9,56.0,30.10,NW,307,1.0,6.0,56,0.00,,,0.00,786,weatherlink.com 1.10,2013-10-09 17:43:00,
2013-10-09 13:58:00,74.0,58.0,30.09,NW,323,1.0,5.0,57,0.00,,,0.00,773,weatherlink.com 1.10,2013-10-09 17:58:00,
2013-10-09 14:13:00,73.3,57.0,30.09,NE,51,1.0,5.0,56,0.00,,,0.00,759,weatherlink.com 1.10,2013-10-09 18:13:00,
2013-10-09 14:28:00,72.2,57.0,30.08,NNE,32,0.0,8.0,60,0.00,,,0.00,742,weatherlink.com 1.10,2013-10-09 18:28:00,
2013-10-09 14:43:00,73.9,58.0,30.07,NW,321,0.0,6.0,58,0.00,,,0.00,717,weatherlink.com 1.10,2013-10-09 18:43:00,
2013-10-09 14:58:00,73.9,56.0,30.07,West,271,0.0,6.0,54,0.00,,,0.00,689,weatherlink.com 1.10,2013-10-09 18:58:00,
2013-10-09 15:14:00,73.4,56.0,30.07,West,281,0.0,7.0,55,0.00,,,0.00,657,weatherlink.com 1.10,2013-10-09 19:14:00,
2013-10-09 15:29:00,73.7,57.0,30.07,NNW,329,0.0,5.0,57,0.00,,,0.00,621,weatherlink.com 1.10,2013-10-09 19:29:00,
2013-10-09 15:44:00,73.5,56.0,30.07,NNE,28,0.0,4.0,55,0.00,,,0.00,584,weatherlink.com 1.10,2013-10-09 19:44:00,
2013-10-09 15:59:00,73.3,57.0,30.07,SE,124,0.0,5.0,58,0.00,,,0.00,541,weatherlink.com 1.10,2013-10-09 19:59:00,
2013-10-09 16:14:00,72.8,57.0,30.06,North,360,0.0,3.0,59,0.00,,,0.00,506,weatherlink.com 1.10,2013-10-09 20:14:00,
2013-10-09 16:29:00,72.5,57.0,30.06,North,5,0.0,4.0,58,0.00,,,0.00,420,weatherlink.com 1.10,2013-10-09 20:29:00,
2013-10-09 16:44:00,72.0,57.0,30.06,NNW,348,0.0,4.0,59,0.00,,,0.00,42,weatherlink.com 1.10,2013-10-09 20:44:00,
2013-10-09 16:59:00,72.1,57.0,30.06,NNE,13,0.0,4.0,59,0.00,,,0.00,37,weatherlink.com 1.10,2013-10-09 20:59:00,
2013-10-09 17:14:00,71.6,57.0,30.06,SE,139,0.0,7.0,60,0.00,,,0.00,35,weatherlink.com 1.10,2013-10-09 21:14:00,
2013-10-09 17:29:00,70.6,56.0,30.06,NE,50,0.0,5.0,60,0.00,,,0.00,21,weatherlink.com 1.10,2013-10-09 21:29:00,
2013-10-09 17:44:00,69.7,56.0,30.06,ENE,57,1.0,5.0,62,0.00,,,0.00,18,weatherlink.com 1.10,2013-10-09 21:44:00,
2013-10-09 17:59:00,68.8,55.0,30.06,NE,53,1.0,5.0,62,0.00,,,0.00,16,weatherlink.com 1.10,2013-10-09 21:59:00,
2013-10-09 18:14:00,68.0,56.0,30.06,SSE,155,0.0,4.0,66,0.00,,,0.00,14,weatherlink.com 1.10,2013-10-09 22:14:00,
2013-10-09 18:29:00,66.9,56.0,30.06,NNE,21,0.0,1.0,68,0.00,,,0.00,12,weatherlink.com 1.10,2013-10-09 22:29:00,
2013-10-09 18:44:00,65.9,56.0,30.06,NNE,26,0.0,0.0,70,0.00,,,0.00,5,weatherlink.com 1.10,2013-10-09 22:44:00,
2013-10-09 18:59:00,64.8,56.0,30.06,NNE,26,0.0,0.0,72,0.00,,,0.00,0,weatherlink.com 1.10,2013-10-09 22:59:00,
2013-10-09 19:14:00,63.7,56.0,30.06,NNE,26,0.0,0.0,76,0.00,,,0.00,0,weatherlink.com 1.10,2013-10-09 23:14:00,
2013-10-09 19:29:00,62.3,56.0,30.06,NNE,26,0.0,0.0,79,0.00,,,0.00,0,weatherlink.com 1.10,2013-10-09 23:29:00,
2013-10-09 19:44:00,61.1,55.0,30.06,NNE,26,0.0,0.0,81,0.00,,,0.00,0,weatherlink.com 1.10,2013-10-09 23:44:00,
2013-10-09 19:59:00,60.2,55.0,30.06,NNE,26,0.0,0.0,83,0.00,,,0.00,0,weatherlink.com 1.10,2013-10-09 23:59:00,
2013-10-09 20:14:00,60.2,55.0,30.07,NNE,26,0.0,0.0,84,0.00,,,0.00,0,weatherlink.com 1.10,2013-10-10 00:14:00,
2013-10-09 20:29:00,60.7,56.0,30.07,NNE,26,0.0,0.0,84,0.00,,,0.00,0,weatherlink.com 1.10,2013-10-10 00:29:00,
2013-10-09 20:44:00,61.1,56.0,30.07,NNE,26,0.0,0.0,83,0.00,,,0.00,0,weatherlink.com 1.10,2013-10-10 00:44:00,
2013-10-09 20:59:00,61.5,56.0,30.07,NNE,30,0.0,0.0,82,0.00,,,0.00,0,weatherlink.com 1.10,2013-10-10 00:59:00,
2013-10-09 21:14:00,61.4,56.0,30.07,NNE,30,0.0,1.0,81,0.00,,,0.00,0,weatherlink.com 1.10,2013-10-10 01:14:00,
2013-10-09 21:29:00,60.9,55.0,30.07,NNE,30,0.0,0.0,80,0.00,,,0.00,0,weatherlink.com 1.10,2013-10-10 01:29:00,
2013-10-09 21:44:00,60.4,54.0,30.07,ESE,108,0.0,1.0,80,0.00,,,0.00,0,weatherlink.com 1.10,2013-10-10 01:44:00,
2013-10-09 21:59:00,60.4,54.0,30.07,NE,44,0.0,0.0,80,0.00,,,0.00,0,weatherlink.com 1.10,2013-10-10 01:59:00,
2013-10-09 22:14:00,60.0,54.0,30.07,East,82,3.0,5.0,80,0.00,,,0.00,0,weatherlink.com 1.10,2013-10-10 02:14:00,
2013-10-09 22:29:00,59.5,53.0,30.07,East,82,0.0,2.0,80,0.00,,,0.00,0,weatherlink.com 1.10,2013-10-10 02:29:00,
2013-10-09 22:44:00,59.1,53.0,30.07,North,355,0.0,2.0,79,0.00,,,0.00,0,weatherlink.com 1.10,2013-10-10 02:44:00,
2013-10-09 22:59:00,58.9,52.0,30.07,ENE,71,0.0,1.0,79,0.00,,,0.00,0,weatherlink.com 1.10,2013-10-10 02:59:00,
2013-10-09 23:14:00,58.7,53.0,30.07,ENE,65,0.0,1.0,80,0.00,,,0.00,0,weatherlink.com 1.10,2013-10-10 03:14:00,
2013-10-09 23:29:00,58.4,52.0,30.07,East,89,0.0,1.0,80,0.00,,,0.00,0,weatherlink.com 1.10,2013-10-10 03:29:00,
2013-10-09 23:44:00,58.1,52.0,30.07,East,92,0.0,1.0,81,0.00,,,0.00,0,weatherlink.com 1.10,2013-10-10 03:44:00,
2013-10-09 23:59:00,58.3,53.0,30.06,NNE,13,0.0,4.0,82,0.00,,,0.00,0,weatherlink.com 1.10,2013-10-10 03:59:00,